TimePST,TemperatureF,Dew PointF,Humidity,Sea Level PressureIn,VisibilityMPH,Wind Direction,Wind SpeedMPH,Gust SpeedMPH,PrecipitationIn,Events,Conditions,WindDirDegrees,DateUTC
12:15 AM,48.2,39.2,71,29.80,10.0,West,6.9,-,N/A,,Clear,260,2012-12-14 08:15:00
12:35 AM,50.0,37.4,62,29.80,10.0,West,5.8,-,N/A,,Clear,270,2012-12-14 08:35:00
12:55 AM,48.2,39.2,71,29.81,10.0,Calm,Calm,-,N/A,,Clear,0,2012-12-14 08:55:00
1:15 AM,46.4,41.0,81,29.81,10.0,ESE,4.6,-,N/A,,Partly Cloudy,120,2012-12-14 09:15:00
1:35 AM,46.4,42.8,87,29.82,10.0,SE,3.5,-,N/A,,Mostly Cloudy,130,2012-12-14 09:35:00
1:55 AM,46.4,42.8,87,29.82,10.0,SSE,3.5,-,N/A,,Mostly Cloudy,160,2012-12-14 09:55:00
2:15 AM,46.4,42.8,87,29.83,10.0,WSW,5.8,-,N/A,Rain,Light Rain,250,2012-12-14 10:15:00
2:35 AM,46.4,42.8,87,29.83,8.0,Calm,Calm,-,0.03,Rain,Rain,0,2012-12-14 10:35:00
2:55 AM,46.4,42.8,87,29.82,10.0,Calm,Calm,-,0.04,,Overcast,0,2012-12-14 10:55:00
3:15 AM,48.2,42.8,82,29.83,10.0,Calm,Calm,-,N/A,,Scattered Clouds,0,2012-12-14 11:15:00
3:35 AM,46.4,42.8,87,29.83,8.0,Calm,Calm,-,0.01,,Scattered Clouds,0,2012-12-14 11:35:00
4:15 AM,46.4,44.6,93,29.84,10.0,SSE,5.8,-,N/A,,Partly Cloudy,160,2012-12-14 12:15:00
4:35 AM,46.4,44.6,93,29.84,10.0,Calm,Calm,-,N/A,,Scattered Clouds,0,2012-12-14 12:35:00
4:55 AM,44.6,44.6,100,29.85,10.0,Calm,Calm,-,N/A,,Scattered Clouds,0,2012-12-14 12:55:00
5:15 AM,44.6,44.6,100,29.86,10.0,Calm,Calm,-,N/A,,Scattered Clouds,0,2012-12-14 13:15:00
6:47 AM,44.6,44.6,100,29.89,9.0,Calm,Calm,-,N/A,Rain,Light Rain,0,2012-12-14 14:47:00
10:47 AM,55.4,39.2,54,29.96,15.0,West,9.2,-,N/A,,Mostly Cloudy,260,2012-12-14 18:47:00
11:47 AM,59.0,35.6,42,29.95,15.0,WSW,9.2,-,N/A,,Mostly Cloudy,240,2012-12-14 19:47:00
1:47 PM,55.4,37.4,51,29.94,15.0,SW,10.4,-,N/A,,Overcast,230,2012-12-14 21:47:00
2:47 PM,51.8,44.6,76,29.95,15.0,Calm,Calm,-,N/A,,Overcast,0,2012-12-14 22:47:00
5:47 PM,50.0,46.4,87,29.98,7.0,Calm,Calm,-,N/A,,Overcast,0,2012-12-15 01:47:00
8:15 PM,48.2,46.4,93,30.02,10.0,Calm,Calm,-,N/A,,Overcast,0,2012-12-15 04:15:00
8:35 PM,48.2,46.4,93,30.02,10.0,East,3.5,-,N/A,,Overcast,100,2012-12-15 04:35:00
8:47 PM,48.2,46.4,93,30.01,10.0,Calm,Calm,-,N/A,,Overcast,0,2012-12-15 04:47:00
8:55 PM,48.2,46.4,93,30.02,10.0,Calm,Calm,-,N/A,,Overcast,0,2012-12-15 04:55:00
9:15 PM,48.2,46.4,93,30.02,10.0,Calm,Calm,-,N/A,,Overcast,0,2012-12-15 05:15:00
9:35 PM,48.2,48.2,100,30.02,10.0,SSE,3.5,-,N/A,,Light Drizzle,160,2012-12-15 05:35:00
9:55 PM,48.2,46.4,93,30.02,8.0,ESE,3.5,-,N/A,Rain,Light Rain,110,2012-12-15 05:55:00
10:15 PM,48.2,46.4,93,30.02,6.0,Calm,Calm,-,N/A,Rain,Light Rain,0,2012-12-15 06:15:00
10:35 PM,48.2,46.4,93,30.02,8.0,ESE,3.5,-,N/A,Rain,Light Rain,120,2012-12-15 06:35:00
10:55 PM,48.2,46.4,93,30.02,10.0,Calm,Calm,-,N/A,,Overcast,0,2012-12-15 06:55:00
11:15 PM,48.2,46.4,93,30.01,10.0,Calm,Calm,-,N/A,,Mostly Cloudy,0,2012-12-15 07:15:00
11:35 PM,48.2,46.4,93,30.01,10.0,Calm,Calm,-,N/A,,Mostly Cloudy,0,2012-12-15 07:35:00
11:55 PM,48.2,46.4,93,30.00,5.0,Calm,Calm,-,N/A,Rain,Light Rain,0,2012-12-15 07:55:00